Location: NCO
(38.4404°N, 77.1340°W)
Time: 08:34:04
(UTC-05:00)

N. Korean satellite - Visible Passes

Search period start: 17 February 2019 00:00
Search period end: 27 February 2019 00:00
Orbit: 457 x 510 km, 97.2° (Epoch: 16 February)

Date Brightness Start Highest point End Pass type
(mag) Time Alt. Az. Time Alt. Az. Time Alt. Az.
17 Feb 9.5 05:36:46 10° NE 05:39:23 20° E 05:41:57 10° SE visible
19 Feb 6.5 06:19:58 10° NNE 06:23:26 85° E 06:26:51 10° S visible
19 Feb 10.0 18:28:17 10° SW 18:30:53 18° W 18:33:28 10° NW visible
20 Feb 8.3 05:55:27 10° NNE 05:58:40 36° E 06:01:50 10° SSE visible
21 Feb 9.8 05:31:29 10° NE 05:33:48 17° E 05:36:06 10° SE visible
22 Feb 10.8 18:49:51 10° W 18:50:13 10° W 18:50:37 10° W visible
23 Feb 6.8 06:14:25 10° NNE 06:17:51 71° E 06:21:16 10° S visible
23 Feb 9.8 18:22:30 10° SW 18:25:19 21° W 18:28:07 10° NW visible
24 Feb 8.7 05:49:58 10° NNE 05:53:04 30° E 05:56:07 10° SSE visible
25 Feb 9.9 05:26:13 10° ENE 05:28:11 14° E 05:30:08 10° SE visible
26 Feb 10.5 18:43:15 10° WSW 18:44:37 12° W 18:45:58 10° WNW visible
